Other Public Products
Issued by NWS Grand Forks, ND

Home | Current Version | Previous Version | Text Only | Print | Product List | Glossary On
Versions: 1 2 3 4 5 6 7 8 9 10 11 12 13 14 15 16 17 18 19 20 21 22 23 24 25 26 27 28 29 30 31 32 33 34 35 36 37 38 39 40 41 42 43 44 45 46 47 48 49 50
000
FPUS83 KFGF 281310
OPUFGF
PRAIRIE TO PINES WEATHER ROUNDUP
NATIONAL WEATHER SERVICE EASTERN NORTH DAKOTA/GRAND FORKS ND
800 AM CDT TUE MAR 28 2017

 **SATELLITE DATA USED TO AUGMENT SKY COVER AT AUTOMATED STATIONS**
 *****  WEATHER ACROSS EASTERN NORTH DAKOTA  *****

CITY           SKY/WX    TMP DP  RH WIND       PRES   REMARKS
GRAND FORKS    CLOUDY    34  32  92 N10       30.16R
GRAND FORKS AF CLOUDY    33  32  99 N9        30.17R WCI  25
GRAND CITY NWS NOT AVBL
BUXTON         NOT AVBL
DEVILS LAKE    CLOUDY    33  30  88 CALM      30.16R
FARGO          FOG       32  31  96 N7        30.13S VSB<1/4
WAHPETON ARPT    N/A     32  30  93 NW5       30.13R VSB 1/2
$$

 *****  WEATHER ACROSS CENTRAL AND WESTERN NORTH DAKOTA  *****

CITY           SKY/WX    TMP DP  RH WIND       PRES   REMARKS
JAMESTOWN      FOG       30  30 100 CALM      30.12R VSB<1/4
BISMARCK       FOG       32  32 100 NE5       30.10R VSB 1/4
MINOT          FOG       34  34 100 E8        30.10R VSB<1/4
MINOT AFB      CLOUDY    32  32 100 SE15      30.10R WCI  22
GARRISON         N/A     33  33 100 E9        30.07S
WILLISTON      CLOUDY    37  35  92 NE3       30.05R
DICKINSON      MOCLDY    29  28  96 E6        30.02R WCI  23
HETTINGER      FAIR      31  28  89 CALM      30.04R
$$

 *****  OTHER OBSERVATIONS NORTHEAST NORTH DAKOTA  *****

CITY           SKY/WX    TMP DP  RH WIND       PRES   REMARKS
WALHALLA       NOT AVBL
LANGDON        CLOUDY    32  30  93 NE9       30.15R WCI  24
CAVALIER       FAIR      32  30  93 N10       30.18S WCI  24
GRAFTON        PTSUNNY   32  32 100 N10       30.19R WCI  24
CANDO          NOT AVBL
FORT TOTTEN    NOT AVBL
ROLLA          CLOUDY    30  30 100 NE7       30.15R WCI  23
RUGBY          NOT AVBL
 ***** THE ABOVE OBSERVATIONS ARE NON NWS ARE NOT QUALITY
        CONTROLLED AND MAY MIS-REPORT RAIN FOR SNOW...
$$

 *****  OTHER OBSERVATIONS SOUTHEAST NORTH DAKOTA *****

CITY           SKY/WX    TMP DP  RH WIND       PRES   REMARKS
COOPERSTOWN    CLOUDY    32  32 100 NE7       30.14S
VALLEY CITY    FOG       27  27 100 NW5       30.15R VSB 1/2 WCI  21
OAKES          NOT AVBL
GWINNER        FOG       30  30 100 MISG      30.12R VSB 0
SHEYENNE NWR     N/A     30  30 100 N6        29.95  WCI  24
BUFFALO        NOT AVBL
WYNDMERE       NOT AVBL
 ***** THE ABOVE OBSERVATIONS ARE NON NWS ARE NOT QUALITY
       CONTROLLED AND MAY MIS-REPORT RAIN FOR SNOW...
$$

  *****  WEATHER ACROSS NORTHERN MINNESOTA  *****

CITY           SKY/WX    TMP DP  RH WIND       PRES   REMARKS
FLAG ISLAND    FAIR      30  27  86 N5        30.17R
WARROAD        FAIR      30  28  93 N3        30.16R
ROSEAU         FAIR      30  27  86 CALM      30.16R
HALLOCK        FAIR      32  30  93 NW3       30.17R
THF RVR FALLS  MOCLDY   N/A N/A N/A NE8       30.15R
HALSTAD          N/A     31  30  95 NW5         N/A
FOSSTON        CLOUDY    34  30  86 NE5       30.13R
BAUDETTE       FAIR      32  27  81 N5        30.14R
WASKISH        FAIR      32  30  93 N3        30.13R
CROOKSTON      MOCLDY    32  32 100 N3        30.16R FOG
$$
  *****  WEATHER ACROSS CENTRAL AND WEST MINNESOTA  *****

CITY           SKY/WX    TMP DP  RH WIND       PRES   REMARKS
BEMIDJI        MOCLDY    31  28  90 NW3       30.12R
PARK RAPIDS    FAIR      30  25  81 NW3       30.10R
WADENA         FAIR      27  27 100 S3        30.11R
DETROIT LAKES  FAIR      32  30  93 CALM      30.12R
MOORHEAD       FOG       30  28  93 N7        30.14S VSB<1/4 WCI  23
FERGUS FALLS   FAIR      32  32 100 NE6       30.16R FOG
ELBOW LAKE     FAIR      32  31  98 CALM      30.12R
MORRIS MN      FAIR      30  28  93 NW5       30.11R
STAPLES        FAIR      28  27  93 CALM      30.11R
WHEATON        FOG       30  28  93 NW5       30.15R VSB<1/4
$$
  *****  WEATHER ELSEWHERE ACROSS MINNESOTA  *****

CITY           SKY/WX    TMP DP  RH WIND       PRES   REMARKS
DULUTH         FAIR      31  29  92 CALM      30.11R
INTRNTL FALLS  FAIR      35  27  72 NE6       30.12R
ELY            PTSUNNY   27  27 100 CALM      30.11R
CLOQUET        FAIR      28  27  93 CALM      30.11R
BRAINERD       FAIR      27  25  92 CALM      30.12R
HIBBING        FAIR      26  25  96 CALM      30.11R
ALEXANDRIA     FAIR      34  31  88 CALM      30.11R
SAINT CLOUD    FAIR      31  30  96 CALM      30.11R
MINNEAPOLIS    FAIR      38  34  85 CALM      30.11R
$$

  *****  WEATHER ACROSS SOUTH DAKOTA  *****

CITY           SKY/WX    TMP DP  RH WIND       PRES   REMARKS
SIOUX FALLS    FOG       32  31  96 NE5       30.09R VSB 3/4
BROOKINGS      FAIR      33  31  92 CALM      30.09R FOG
WATERTOWN      FAIR      30  29  96 NE3       30.09R FOG
HURON          FAIR      35  34  96 SE3       30.08R
SISSETON         N/A     32  32 100 N9        30.12R WCI  24
ABERDEEN       FAIR      31  27  85 N7        30.10R WCI  24
MITCHELL       FAIR      33  33 100 CALM      30.08R FOG
PIERRE         FAIR      41  36  82 E7        30.01R
MOBRIDGE       FAIR      37  30  75 VRB5      30.04R
RAPID CITY     CLOUDY    39  33  79 N10       29.96S
$$

  *****  SOME WEATHER IN NEARBY STATES *****

CITY           SKY/WX    TMP DP  RH WIND       PRES   REMARKS
GLASGOW MT     MOCLDY    33  31  92 W3        30.04R
GREAT FALLS MT FAIR      32  24  72 SW14      30.09R WCI  22
CHEYENNE WY    CLOUDY    37  37 100 N10       29.87R FOG
SCOTTSBLUFF NE LGT RAIN  45  43  93 E14       29.90R FOG
OMAHA NE       CLOUDY    41  36  82 NW3       30.09R
DES MOINES IA  CLOUDY    48  41  76 NE3       30.08R
DAVENPORT IA   CLOUDY    47  45  93 NE5       30.08R FOG
CHICAGO IL     CLOUDY    41  35  79 NE12      30.08R
EAU CLAIRE WI  FOG       29  29 100 NE3       30.12S VSB 1/4
LA CROSSE WI   FOG       34  33  96 NW6       30.13R VSB<1/4
$$

  *****  SOME NATIONAL WEATHER *****

CITY           SKY/WX    TMP DP  RH WIND       PRES   REMARKS
LA GUARDIA NY  CLOUDY    44  40  85 NE15      29.95F FOG
RALEIGH NC     PTSUNNY   62  59  90 SW10      29.95R
ATLANTA GA     CLOUDY    64  62  93 SW9       29.99R
NEW ORLEANS LA FAIR      71  70  96 CALM      30.00R
OKLAHOMA CITY  MOCLDY    49  46  90 E9        29.97R
ALBUQUERQUE NM RAIN      43  38  82 W16G24    29.86R
SALT LAKE CITY FAIR      38  31  76 NW12      30.09R
LOS ANGELES CA FAIR      58  38  47 NE10      29.99R
BOISE ID       FAIR      34  30  85 CALM      30.25R
SEATTLE WA     LGT RAIN  45  41  86 S10       30.22R
$$

*** WEATHER ACROSS MANITOBA...SASKATCHEWAN AND ONTARIO ***
                ***ONTARIO***

CITY           SKY/WX    TMP DP  RH WIND       PRES   REMARKS
GERALDTON      PTSUNNY   25  21  86 NE6       30.16R WCI  18
THUNDER BAY    PTSUNNY   32  30  93 W3        30.13R
SIOUX LOOKOUT  PTSUNNY   27  19  74 E3        30.19R
TORONTO        PTSUNNY   41  37  87 N14G21    29.95R
BIG TROUT LK   FLURRIES  14  10  85 N6        30.30R WCI   5
PICKLE LAKE    PTSUNNY   18  12  79 NW3       30.22R
DRYDEN         CLEAR     28  23  80 NE12      30.17R WCI  18
KENORA         MOCLDY    28  23  80 NE8       30.17R WCI  20
$$
                *** MANITOBA***

CITY           SKY/WX    TMP DP  RH WIND       PRES   REMARKS
BRANDON        HAIL      28  25  86 E15       30.19R WCI  17
DAUPHIN        PTCLDY    25  21  86 NE5       30.26R WCI  19
ISLAND LAKE    PTCLDY     9   5  85 VRB2      30.35R
PILOT MOUND      N/A     28  27  93 NE9         N/A  WCI  20
THE PAS        CLOUDY    16  10  79 SE10      30.29R WCI   3
THOMPSON       PTCLDY     0  -4  85 NE5       30.38R WCI -10
WINNIPEG       PTCLDY    28  25  86 NE8       30.21R WCI  20
LYNN LAKE      CLOUDY     1   0  92 E2        30.30S FOG
CHURCHILL      FOG       -8 -11  84 N6        30.48R VSB 1/4 WCI -21
GILLAM         FLURRIES   0  -4  85 NW7       30.42R WCI -13
$$
                ***SASKATCHEWAN***

CITY           SKY/WX    TMP DP  RH WIND       PRES   REMARKS
ESTEVAN        CLOUDY    32  32 100 E13       30.10R FOG     WCI  22
KINDERSLEY     MOCLDY    37  36  93 SE13      29.95S
LLOYDMINSTER   MOCLDY    32  32 100 SE6       29.95R FOG
PRINCE ALBERT  CLOUDY    30  27  86 E9        30.12R WCI  22
REGINA         CLOUDY    32  30  93 SE9       30.11R WCI  24
YORKTON        CLOUDY    30  27  86 E7        30.16S WC



USA.gov is the U.S. government's official web portal to all federal, state and local government web resources and services.